Regional Weather Roundup
Issued by NWS

Home | Current Version | Previous Version | Graphics & Text | Print | Product List | Glossary On
Versions: 1 2 3 4 5 6 7 8 9 10 11 12 13 14 15 16 17 18 19 20 21 22 23 24 25 26 27 28 29 30 31 32 33 34 35 36 37 38 39 40 41 42 43 44 45 46 47 48 49 50
000
ASUS43 KIND 040609
RWRIN

WEATHER ROUNDUP FOR INDIANA
NATIONAL WEATHER SERVICE INDIANAPOLIS IN
200 AM EDT WED MAY 04 2016

NOTE: "FAIR" INDICATES FEW OR NO CLOUDS BELOW 12,000 FEET WITH NO
SIGNIFICANT WEATHER AND/OR OBSTRUCTIONS TO VISIBILITY.

* - STATION DOES NOT REPORT WEATHER SUCH AS PRECIPITATION OR FOG.

+ - STATION NOT QUALITY CONTROLLED BY THE NATIONAL WEATHER SERVICE.
    USE DATA WITH CAUTION...ESPECIALLY DEWPOINT AND RELATIVE
    HUMIDITY OBSERVATIONS.

INZ001>003-010>013-019-020-040700-
NORTHWEST INDIANA

CITY           SKY/WX    TMP DP  RH WIND       PRES   REMARKS
GARY /AIRPORT/ MOCLDY    60  46  60 SW9       29.67F
KNOX *+        CLOUDY    54  36  50 SW10      29.69F
LA PORTE +     CLOUDY    56  43  61 SW7       29.68F
6HR MIN TEMP:  56; 6HR MAX TEMP:  62;

MICHIGAN CITY+ CLOUDY    55  43  62 S7        29.67F
MONTICELLO +   CLOUDY    54  42  63 SW10      29.72F
6HR MIN TEMP:  54; 6HR MAX TEMP:  61;

RENSSELAER +   CLOUDY    54  45  71 S10       29.71F
VALPARAISO     CLOUDY    55  42  61 SW10      29.68F
6HR MIN TEMP:  55; 6HR MAX TEMP:  62;


$$

LMZ046-743>745-040700-
SOUTHERN LAKE MICHIGAN

STATION/POSITION TIME  TEMP    WIND        PRES    WAVE
                       AIR SEA DIR/SP/G            HT
                 (UTC) (F)     (DEG/KT/KT) (MB)    (FT)
BURNS HARBOR     0602   59     210/ 16/ 21 1004.7F
MICHIGAN CITY    0500   59     180/ 13/ 16   N/A

$$

INZ004-005-014>016-021>024-040700-
NORTH CENTRAL INDIANA

CITY           SKY/WX    TMP DP  RH WIND       PRES   REMARKS
GOSHEN         PTCLDY    54  43  66 S12       29.69F
6HR MIN TEMP:  54; 6HR MAX TEMP:  59;

LOGANSPORT +   CLOUDY    52  45  76 SW10      29.74F
PERU/GRISSOM   CLOUDY    54  46  76 SW12      29.72F
ROCHESTER +    PTCLDY    55  45  67 SW7       29.72F
SOUTH BEND     CLOUDY    55  41  59 SW6       29.69F
6HR MIN TEMP:  55; 6HR MAX TEMP:  61; 6HR PCP: TRACE;

WARSAW +       CLOUDY    54  43  66 S3        29.71F

$$

INZ006>009-017-018-025>027-040700-
NORTHEAST INDIANA

CITY           SKY/WX    TMP DP  RH WIND       PRES   REMARKS
ANGOLA *+      MOCLDY    52  46  82 S6        29.71F
AUBURN +       CLOUDY    52  43  71 S5        29.73F
FORT WAYNE     CLOUDY    53  44  71 S12       29.74F
6HR MIN TEMP:  50; 6HR MAX TEMP:  58;

HUNTINGTON +   CLOUDY    53  43  69 S6        29.74F
6HR MIN TEMP:  52; 6HR MAX TEMP:  58;


$$

INZ028-029-035-036-043>045-051>053-040700-
WEST CENTRAL INDIANA

CITY           SKY/WX    TMP DP  RH WIND       PRES   REMARKS
CRAWFORDSVL +  CLOUDY    52  46  81 SW9       29.78F
6HR MIN TEMP:  51; 6HR MAX TEMP:  58;

GREENCASTLE +  MOCLDY    50  46  87 CALM      29.80F
LAFAYETTE      CLOUDY    52  44  74 SW7       29.75F
6HR MIN TEMP:  52; 6HR MAX TEMP:  60;

TERRE HAUTE    PTCLDY    52  45  77 SW8       29.81F
6HR MIN TEMP:  51; 6HR MAX TEMP:  62;


$$

INZ030>032-037>040-046>048-054>057-064-065-040700-
CENTRAL INDIANA

CITY           SKY/WX    TMP DP  RH WIND       PRES   REMARKS
CP ATTERBURY + CLOUDY    50  45  81 SW3       29.82F
FISHERS *+     CLOUDY    52  46  82 SW6       29.78F
FRANKFORT +      N/A     54  37  53 SW10      29.77F
6HR MIN TEMP:  54; 6HR MAX TEMP:  60;

GREENWOOD *+   CLOUDY    54  45  71 SW5       29.80F
INDIANAPOLIS   CLOUDY    53  44  71 SW10      29.78F
6HR MIN TEMP:  52; 6HR MAX TEMP:  59;

-EAGLE CREEK   CLOUDY    54  44  69 SW5       29.78F
6HR MIN TEMP:  52; 6HR MAX TEMP:  60;

KOKOMO *+      CLOUDY    55  43  62 SW12      29.74F
6HR MIN TEMP:  52; 6HR MAX TEMP:  61;

MARION +       CLOUDY    52  45  77 SW10      29.76F
SHELBYVILLE    CLOUDY    53  47  79 S7        29.79F
6HR MIN TEMP:  53; 6HR MAX TEMP:  60;

ZIONSVILLE +   CLOUDY    52  45  75 SW8       29.78F
6HR MIN TEMP:  50; 6HR MAX TEMP:  59;


$$

INZ033-034-041-042-049-050-058-059-040700-
EAST CENTRAL INDIANA

CITY           SKY/WX    TMP DP  RH WIND       PRES   REMARKS
MUNCIE         CLOUDY    54  44  69 SW7       29.77F
6HR MIN TEMP:  52; 6HR MAX TEMP:  59;


$$

INZ060-061-067>069-081>083-085>088-040700-
SOUTHWEST INDIANA

CITY           SKY/WX    TMP DP  RH WIND       PRES   REMARKS
EVANSVILLE     CLOUDY    52  45  77 SW3       29.88F
6HR MIN TEMP:  50; 6HR MAX TEMP:  61;

HUNTINGBURG *+ CLOUDY    54  45  71 S3        29.86F
6HR MIN TEMP:  52; 6HR MAX TEMP:  57;

WASHINGTON +   MOCLDY    54  47  76 W8        29.84F
6HR MIN TEMP:  54; 6HR MAX TEMP:  60;


$$

INZ062-063-066-070>080-084-089>092-040700-
SOUTH CENTRAL AND SOUTHEAST INDIANA

CITY           SKY/WX    TMP DP  RH WIND       PRES   REMARKS
BEDFORD +      CLOUDY    52  50  93 SW3       29.83F
BLOOMINGTON    PTCLDY    52  44  74 SW8       29.82F
6HR MIN TEMP:  52; 6HR MAX TEMP:  61;

MADISON *+     CLOUDY    48  46  93 CALM      29.85F
NORTH VERNON + CLOUDY   N/A N/A N/A CALM      29.83F
SEYMOUR +      CLOUDY    54  48  82 CALM      29.83F

$$





USA.gov is the U.S. government's official web portal to all federal, state and local government web resources and services.